When you browse on this site, cookies collect data to enhance your experience and personalize the content and advertising you see.
Visit our Privacy Policy to learn more. By continuing to use the site, you agree to this use of cookies and data.

Hourly Weather Konstantyna

Today, 2 July, Thursday

Time Temperature Precipitation Wind Pressure Humidity
00:00 +27°C° 0 mm 1 mps 710 mmHg 40%
01:00 +27°C° 0 mm 1 mps 710 mmHg 41%
02:00 +24°C° 0 mm 0 mps 709 mmHg 42%
03:00 +24°C° 0 mm 0 mps 709 mmHg 44%
04:00 +25°C° 0 mm 0 mps 709 mmHg 41%
05:00 +26°C° 0 mm 0 mps 710 mmHg 38%
06:00 +27°C° 0 mm 0 mps 710 mmHg 35%
07:00 +31°C° 0 mm 1 mps 711 mmHg 28%
08:00 +34°C° 0 mm 1 mps 711 mmHg 22%
09:00 +36°C° 0 mm 1 mps 712 mmHg 15%
10:00 +38°C° 0 mm 2 mps 712 mmHg 13%
11:00 +39°C° 0 mm 2 mps 712 mmHg 11%
12:00 +42°C° 0 mm 3 mps 712 mmHg 10%
13:00 +42°C° 0 mm 4 mps 712 mmHg 9%
14:00 +42°C° 0 mm 5 mps 711 mmHg 9%
15:00 +44°C° 0 mm 6 mps 711 mmHg 9%
16:00 +41°C° 0 mm 5 mps 711 mmHg 10%
17:00 +40°C° 0 mm 4 mps 710 mmHg 12%
18:00 +37°C° 0 mm 3 mps 710 mmHg 14%
19:00 +35°C° 0 mm 3 mps 710 mmHg 17%
20:00 +32°C° 0 mm 2 mps 710 mmHg 20%
21:00 +29°C° 0 mm 1 mps 710 mmHg 24%
22:00 +29°C° 0 mm 1 mps 710 mmHg 24%
23:00 +26°C° 0 mm 0 mps 710 mmHg 23%

Tomorrow, 3 July, Friday

Time Temperature Precipitation Wind Pressure Humidity
00:00 +26°C° 0 mm 0 mps 710 mmHg 23%
01:00 +25°C° 0 mm 0 mps 710 mmHg 23%
02:00 +27°C° 0 mm 1 mps 710 mmHg 23%
03:00 +26°C° 0 mm 1 mps 710 mmHg 23%
04:00 +27°C° 0 mm 1 mps 710 mmHg 24%
05:00 +27°C° 0 mm 1 mps 710 mmHg 26%
06:00 +25°C° 0 mm 0 mps 710 mmHg 27%
07:00 +29°C° 0 mm 1 mps 711 mmHg 24%
08:00 +31°C° 0 mm 1 mps 711 mmHg 21%
09:00 +34°C° 0 mm 2 mps 712 mmHg 18%
10:00 +35°C° 0 mm 2 mps 712 mmHg 16%
11:00 +37°C° 0 mm 2 mps 712 mmHg 15%
12:00 +38°C° 0 mm 3 mps 712 mmHg 14%
13:00 +38°C° 0 mm 4 mps 712 mmHg 17%
14:00 +37°C° 0 mm 5 mps 711 mmHg 21%
15:00 +38°C° 0 mm 6 mps 711 mmHg 24%
16:00 +34°C° 0 mm 5 mps 711 mmHg 33%
17:00 +32°C° 0 mm 5 mps 711 mmHg 42%
18:00 +28°C° 0 mm 4 mps 711 mmHg 50%
19:00 +27°C° 0 mm 3 mps 711 mmHg 59%
20:00 +25°C° 0 mm 3 mps 712 mmHg 67%
21:00 +23°C° 0 mm 2 mps 712 mmHg 76%
22:00 +23°C° 0 mm 2 mps 712 mmHg 79%
23:00 +21°C° 0 mm 2 mps 712 mmHg 81%

Day after tomorrow, 4 July, Saturday

Time Temperature Precipitation Wind Pressure Humidity
00:00 +21°C° 0 mm 2 mps 712 mmHg 84%
01:00 +21°C° 0 mm 1 mps 712 mmHg 86%
02:00 +21°C° 0 mm 1 mps 712 mmHg 88%
03:00 +20°C° 0 mm 1 mps 712 mmHg 90%
04:00 +20°C° 0 mm 1 mps 712 mmHg 86%
05:00 +21°C° 0 mm 1 mps 713 mmHg 83%
06:00 +21°C° 0 mm 1 mps 713 mmHg 80%
07:00 +23°C° 0 mm 1 mps 713 mmHg 69%
08:00 +25°C° 0 mm 2 mps 714 mmHg 59%
09:00 +26°C° 0 mm 3 mps 714 mmHg 49%
10:00 +28°C° 0 mm 3 mps 714 mmHg 43%
11:00 +29°C° 0 mm 4 mps 714 mmHg 36%
12:00 +32°C° 0 mm 4 mps 714 mmHg 30%
13:00 +32°C° 0 mm 5 mps 714 mmHg 30%
14:00 +32°C° 0 mm 5 mps 714 mmHg 30%
15:00 +32°C° 0 mm 5 mps 714 mmHg 31%
16:00 +29°C° 0 mm 5 mps 713 mmHg 35%
17:00 +28°C° 0 mm 4 mps 713 mmHg 40%
18:00 +26°C° 0 mm 4 mps 713 mmHg 44%
19:00 +25°C° 0 mm 3 mps 713 mmHg 52%
20:00 +23°C° 0 mm 2 mps 713 mmHg 60%
21:00 +21°C° 0 mm 1 mps 713 mmHg 68%
22:00 +20°C° 0 mm 1 mps 713 mmHg 69%
23:00 +18°C° 0 mm 0 mps 713 mmHg 71%

5 July, Sunday

Time Temperature Precipitation Wind Pressure Humidity
00:00 +17°C° 0 mm 0 mps 713 mmHg 72%
01:00 +17°C° 0 mm 0 mps 712 mmHg 73%
02:00 +16°C° 0 mm 0 mps 712 mmHg 73%
03:00 +16°C° 0 mm 0 mps 712 mmHg 74%
04:00 +17°C° 0 mm 0 mps 712 mmHg 69%
05:00 +20°C° 0 mm 1 mps 712 mmHg 64%
06:00 +21°C° 0 mm 1 mps 713 mmHg 60%
07:00 +22°C° 0 mm 1 mps 713 mmHg 52%
08:00 +24°C° 0 mm 2 mps 713 mmHg 44%
09:00 +26°C° 0 mm 3 mps 714 mmHg 37%
10:00 +28°C° 0 mm 4 mps 714 mmHg 32%
11:00 +29°C° 0 mm 4 mps 713 mmHg 28%
12:00 +30°C° 0 mm 5 mps 713 mmHg 24%
13:00 +30°C° 0 mm 5 mps 713 mmHg 26%
14:00 +30°C° 0 mm 6 mps 713 mmHg 28%
15:00 +30°C° 0 mm 6 mps 712 mmHg 30%
16:00 +29°C° 0 mm 5 mps 712 mmHg 35%
17:00 +27°C° 0 mm 5 mps 712 mmHg 39%
18:00 +26°C° 0 mm 4 mps 711 mmHg 44%
19:00 +24°C° 0 mm 3 mps 711 mmHg 51%
20:00 +23°C° 0 mm 2 mps 711 mmHg 58%
21:00 +21°C° 0 mm 1 mps 711 mmHg 65%
22:00 +21°C° 0 mm 1 mps 711 mmHg 66%
23:00 +20°C° 0 mm 1 mps 711 mmHg 67%

6 July, Monday

Time Temperature Precipitation Wind Pressure Humidity
00:00 +18°C° 0 mm 0 mps 711 mmHg 68%
01:00 +20°C° 0 mm 1 mps 710 mmHg 67%
02:00 +19°C° 0 mm 1 mps 710 mmHg 66%
03:00 +19°C° 0 mm 1 mps 709 mmHg 65%
04:00 +20°C° 0 mm 1 mps 709 mmHg 62%
05:00 +21°C° 0 mm 1 mps 710 mmHg 58%
06:00 +21°C° 0 mm 1 mps 710 mmHg 54%
07:00 +23°C° 0 mm 2 mps 710 mmHg 50%
08:00 +25°C° 0 mm 3 mps 710 mmHg 46%
09:00 +26°C° 0 mm 3 mps 711 mmHg 42%
10:00 +28°C° 0 mm 4 mps 710 mmHg 38%
11:00 +29°C° 0 mm 5 mps 710 mmHg 35%
12:00 +32°C° 0 mm 5 mps 710 mmHg 31%
13:00 +32°C° 0 mm 5 mps 710 mmHg 32%
14:00 +30°C° 0 mm 6 mps 709 mmHg 34%
15:00 +30°C° 0 mm 6 mps 709 mmHg 35%
16:00 +29°C° 0 mm 5 mps 709 mmHg 39%
17:00 +28°C° 0 mm 5 mps 709 mmHg 44%
18:00 +27°C° 0 mm 4 mps 709 mmHg 48%
19:00 +25°C° 0 mm 3 mps 709 mmHg 56%
20:00 +24°C° 0 mm 2 mps 709 mmHg 64%
21:00 +22°C° 0 mm 1 mps 709 mmHg 72%
22:00 +22°C° 0 mm 1 mps 709 mmHg 73%
23:00 +21°C° 0 mm 1 mps 709 mmHg 74%

7 July, Tuesday

Time Temperature Precipitation Wind Pressure Humidity
00:00 +21°C° 0 mm 1 mps 708 mmHg 75%
01:00 +21°C° 0 mm 1 mps 708 mmHg 74%
02:00 +20°C° 0 mm 1 mps 708 mmHg 73%
03:00 +20°C° 0 mm 1 mps 708 mmHg 72%
04:00 +21°C° 0 mm 1 mps 708 mmHg 68%
05:00 +22°C° 0 mm 1 mps 708 mmHg 64%
06:00 +23°C° 0 mm 1 mps 709 mmHg 60%
07:00 +25°C° 0 mm 2 mps 709 mmHg 53%
08:00 +26°C° 0 mm 2 mps 710 mmHg 47%
09:00 +28°C° 0 mm 3 mps 710 mmHg 40%
10:00 +30°C° 0 mm 3 mps 710 mmHg 36%
11:00 +32°C° 0 mm 4 mps 710 mmHg 32%
12:00 +34°C° 0 mm 5 mps 710 mmHg 28%
13:00 +34°C° 0 mm 5 mps 710 mmHg 29%
14:00 +33°C° 0 mm 5 mps 710 mmHg 30%
15:00 +33°C° 0 mm 6 mps 709 mmHg 31%
16:00 +32°C° 0 mm 5 mps 709 mmHg 34%
17:00 +30°C° 0 mm 4 mps 709 mmHg 38%
18:00 +28°C° 0 mm 3 mps 709 mmHg 41%
19:00 +27°C° 0 mm 2 mps 709 mmHg 48%
20:00 +25°C° 0 mm 2 mps 710 mmHg 55%
21:00 +23°C° 0 mm 1 mps 710 mmHg 62%
22:00 +23°C° 0 mm 1 mps 710 mmHg 62%
23:00 +23°C° 0 mm 1 mps 709 mmHg 62%
Show more